Home > Time Zones > World Clock > Weather > Macau > Macau > Past weeks

Flag for Macau Weather past 2 weeks in Macau, Macau

Now
77 °F

Scattered clouds.


Feels Like: 79 °F
Forecast: 78 / 82 °F
Wind: 9 mph from East

Location: Taipa

Current Time: Oct 25, 2014 at 9:30:36 AM

Latest Report: Oct 25, 2014 at 8:30 AM


Visibility: N/A

Pressure: 30.04 "Hg

Humidity: 79%

Dew point: 70 °F

Location of MacauLocation

Historic Weather in Macau — Graph

°F

Macau temperature yesterday

Maximum temperature yesterday: 81 °F (at 11:30 AM)
Minimum temperature yesterday: 75 °F (at 6:00 AM)
Average temperature yesterday: 78 °F

Past Weeks' High & Low Weather Summary

 TemperatureHumidityPressure
High86 °F (Oct 11, 1:30 PM)89% (Oct 23, 2:30 AM)30.09 "Hg (Oct 23, 2:30 AM)
Low73 °F (Oct 23, 4:00 AM)45% (Oct 13, 2:00 PM)29.77 "Hg (Oct 10, 3:00 PM)
Average79 °F67%29.98 "Hg
* Reported Oct 10 8:00 AM — Oct 25 8:30 AM, Macau, Weather by CustomWeather, © 2014

Note: Actual official high and low records may vary slightly from our data, if they occured in-between our weather recording intervals... More about our weather records

Advertising

Macau weather history for previous 24 hours

 ConditionsComfort  
Time TempWeatherWind HumidityBarometerVisibility
8:30 AM
Oct 25
77 °FScattered clouds.9 mph79%30.04 "HgN/A
8:00 AM77 °FScattered clouds.8 mph79%30.04 "HgN/A
7:30 AM77 °FPassing clouds.6 mph79%30.01 "Hg5 mi
7:00 AM77 °FScattered clouds.6 mph79%30.01 "Hg5 mi
6:30 AM77 °FScattered clouds.8 mph79%29.98 "Hg5 mi
6:00 AM77 °FPassing clouds.8 mph79%29.98 "HgN/A
5:30 AM77 °FPassing clouds.6 mph79%29.98 "HgN/A
5:00 AM77 °FPassing clouds.3 mph74%29.95 "HgN/A
4:30 AM77 °FPassing clouds.5 mph74%29.95 "HgN/A
4:00 AM77 °FPassing clouds.10 mph74%29.95 "HgN/A
3:30 AM77 °FPassing clouds.9 mph74%29.95 "HgN/A
3:00 AM77 °FPassing clouds.9 mph79%29.95 "HgN/A
2:30 AM77 °FPassing clouds.12 mph79%29.98 "HgN/A
2:00 AM77 °FPassing clouds.12 mph79%29.98 "HgN/A
1:30 AM77 °FPassing clouds.12 mph79%29.98 "HgN/A
1:00 AM77 °FPassing clouds.12 mph79%30.01 "HgN/A
12:30 AM77 °FPassing clouds.12 mph79%30.01 "HgN/A
12:00 AM77 °FPassing clouds.10 mph79%30.01 "HgN/A
11:30 PM
Oct 24
77 °FPassing clouds.12 mph79%30.01 "HgN/A
11:00 PM77 °FPassing clouds.10 mph79%30.04 "HgN/A
10:30 PM77 °FPassing clouds.12 mph79%30.04 "HgN/A
10:00 PM77 °FPassing clouds.10 mph79%30.04 "HgN/A
9:30 PM77 °FPassing clouds.10 mph79%30.04 "HgN/A
9:00 PM77 °FPassing clouds.10 mph79%30.01 "HgN/A
8:30 PM77 °FPassing clouds.10 mph79%30.01 "HgN/A
8:00 PM77 °FPassing clouds.12 mph79%30.01 "HgN/A
7:30 PM77 °FPassing clouds.13 mph79%30.01 "HgN/A
7:00 PM77 °FPassing clouds.12 mph79%29.98 "HgN/A
6:30 PM77 °FPassing clouds.12 mph74%29.98 "HgN/A
6:00 PM77 °FPassing clouds.13 mph74%29.98 "HgN/A
5:30 PM77 °FScattered clouds.13 mph74%29.98 "HgN/A
5:00 PM77 °FScattered clouds.13 mph74%29.95 "HgN/A
4:30 PM77 °FScattered clouds.12 mph74%29.95 "HgN/A
4:00 PM79 °FScattered clouds.13 mph74%29.95 "HgN/A
3:30 PM79 °FScattered clouds.12 mph74%29.95 "HgN/A
3:00 PM79 °FScattered clouds.12 mph74%29.95 "HgN/A
2:30 PM79 °FScattered clouds.12 mph74%29.98 "HgN/A
2:00 PM79 °FScattered clouds.12 mph74%29.98 "HgN/A
1:30 PM79 °FLight rain. Scattered clouds.13 mph74%29.98 "HgN/A
1:00 PM79 °FScattered clouds.12 mph74%30.01 "HgN/A
12:30 PM79 °FScattered clouds.13 mph74%30.01 "HgN/A
12:00 PM79 °FScattered clouds.15 mph74%30.01 "HgN/A
11:30 AM81 °FPassing clouds.14 mph74%30.01 "Hg6 mi
10:30 AM79 °FScattered clouds.15 mph79%30.04 "HgN/A
10:00 AM79 °FScattered clouds.16 mph79%30.04 "HgN/A
9:30 AM79 °FScattered clouds.15 mph79%30.01 "HgN/A
9:00 AM79 °FScattered clouds.13 mph79%30.01 "HgN/A
Weather by CustomWeather, © 2014

See weather overviewHow to use our weather pages